Location: Perryvale
(54.4667°N, 113.3833°W)
Time: 00:10:48
(UTC+00:00)

SR - Pass Details

Date: 28 May 2024
Orbit: 580 x 858 km, 66.7° (Epoch: 13 June)

Event Time Altitude Azimuth Distance (km) Brightness Sun altitude
Rises 09:01:37 0° 313° (NW) 2,875 ? -11.5°
Reaches altitude 10° 09:04:10 10° 301° (WNW) 1,939 ? -11.4°
Maximum altitude 09:07:46 26° 244° (WSW) 1,162 ? -11.2°
Enters shadow 09:10:11 16° 198° (SSW) 1,548 ? -11.0°
